WetterOnline ( https://www.wetteronline.de )

Wetter aktuell Pratica di Mare

Aktuelles Wetter: Pratica di Mare (21m)

6-stündlich | Neueste Meldungen
Ortszeit Temperatur Wetter
Sa, 18.05. 14:00 20.6° C bewölkt
Sa, 18.05. 8:00 15.0° C leicht bewölkt
Sa, 18.05. 2:00 13.0° C wolkenlos
Fr, 17.05. 20:00 20.0° C wolkenlos
Fr, 17.05. 14:00 21.0° C wolkenlos
Fr, 17.05. 8:00 18.0° C leicht bewölkt
Fr, 17.05. 2:00 18.0° C wolkenlos
Do, 16.05. 20:00 20.2° C wolkenlos
Ortszeit Temperatur Wetter
Sa, 18.05. 19:00 22.2° C wolkig
Sa, 18.05. 18:00 23.0° C wolkig
Sa, 18.05. 17:00 22.8° C wolkig
Sa, 18.05. 16:00 22.4° C leicht bewölkt
Sa, 18.05. 15:00 21.0° C bewölkt
Sa, 18.05. 14:00 20.6° C bewölkt
Sa, 18.05. 13:00 20.2° C wolkig
Ortszeit Relative Feuchte Sichtweite
Sa, 18.05. 14:00 49% 12 km
Sa, 18.05. 8:00 78% 15 km
Sa, 18.05. 2:00 87% 12 km
Fr, 17.05. 20:00 75% 12 km
Fr, 17.05. 14:00 55% 12 km
Fr, 17.05. 8:00 83% 20 km
Fr, 17.05. 2:00 85% 12 km
Do, 16.05. 20:00 87% 15 km
Ortszeit Relative Feuchte Sichtweite
Sa, 18.05. 19:00 74% 15 km
Sa, 18.05. 18:00 52% 15 km
Sa, 18.05. 17:00 54% 15 km
Sa, 18.05. 16:00 66% 12 km
Sa, 18.05. 15:00 75% 12 km
Sa, 18.05. 14:00 49% 12 km
Sa, 18.05. 13:00 57% 12 km
Ortszeit Niederschlagsmenge Niederschlagsart
Sa, 18.05. 14:00 0.0 l/m2 in 6 Std. -
Sa, 18.05. 8:00 0.0 l/m2 in 12 Std. -
Sa, 18.05. 2:00 0.0 l/m2 in 6 Std. -
Fr, 17.05. 20:00 0.0 l/m2 in 12 Std. -
Fr, 17.05. 14:00 0.0 l/m2 in 6 Std. -
Fr, 17.05. 8:00 0.0 l/m2 in 12 Std. -
Fr, 17.05. 2:00 0.0 l/m2 in 6 Std. -
Do, 16.05. 20:00 0.0 l/m2 in 12 Std. -
Ortszeit Niederschlagsmenge Niederschlagsart
Sa, 18.05. 19:00 keine Meldung -
Sa, 18.05. 18:00 keine Meldung -
Sa, 18.05. 17:00 keine Meldung -
Sa, 18.05. 16:00 keine Meldung -
Sa, 18.05. 15:00 keine Meldung -
Sa, 18.05. 14:00 keine Meldung -
Sa, 18.05. 13:00 keine Meldung -
Ortszeit Stärke Spitze Richtung
km/h Bft. km/h Grad Sektor
Sa, 18.05. 14:00 17 3 - 140° SO
Sa, 18.05. 8:00 15 3 - 20° N
Sa, 18.05. 2:00 9 2 - 30° NO
Fr, 17.05. 20:00 7 2 - 220° SW
Fr, 17.05. 14:00 19 3 - 200° S
Fr, 17.05. 8:00 7 2 - 270° W
Fr, 17.05. 2:00 15 3 - 240° SW
Do, 16.05. 20:00 11 2 - 220° SW
Ortszeit Stärke Spitze Richtung
km/h Bft. km/h Grad Sektor
Sa, 18.05. 19:00 7 2 - 190° S
Sa, 18.05. 18:00 17 3 - 140° SO
Sa, 18.05. 17:00 15 3 - 120° SO
Sa, 18.05. 16:00 17 3 - 150° SO
Sa, 18.05. 15:00 20 4 - 180° S
Sa, 18.05. 14:00 17 3 - 140° SO
Sa, 18.05. 13:00 9 2 - 80° O
Ortszeit Untergrenze Bedeckung Gattung
total tief tief mittel hoch
Sa, 18.05. 14:00 1200 m 8/8 3/8 Sc Ns -
Sa, 18.05. 8:00 1200 m 5/8 1/8 Cu Ac Ci
Sa, 18.05. 2:00 - 0/8 0/8 - - -
Fr, 17.05. 20:00 - 0/8 0/8 - - -
Fr, 17.05. 14:00 - 0/8 0/8 - - -
Fr, 17.05. 8:00 600 m 2/8 2/8 Cu - -
Fr, 17.05. 2:00 - 0/8 0/8 - - -
Do, 16.05. 20:00 - 0/8 0/8 - - -
Ortszeit Bedeckungsgrad in Achtel und Wolkenuntergrenze
Sa, 18.05. 19:00 3(3000m)
Sa, 18.05. 18:00 3(3000m)
Sa, 18.05. 17:00 4(3000m)
Sa, 18.05. 16:00 3(2400m)
Sa, 18.05. 15:00 3(1200m) 5(2100m)
Sa, 18.05. 14:00 3(1200m) 5(2100m)
Sa, 18.05. 13:00 1(900m) 3(1500m)
Ortszeit Luftdruck NN (hPa) Tendenz (hPa in 3 Std.)
Sa, 18.05. 14:00 1013 + 1,0
Sa, 18.05. 8:00 1012 - 0,4
Sa, 18.05. 2:00 1014 - 0,8
Fr, 17.05. 20:00 1014 - 0,3
Fr, 17.05. 14:00 1015 + 1,0
Fr, 17.05. 8:00 1012 + 0,7
Fr, 17.05. 2:00 1011 + 0,3
Do, 16.05. 20:00 1007 + 1,8
Ortszeit Luftdruck NN (hPa) Tendenz (hPa in 3 Std.)
Sa, 18.05. 19:00 1012 - 1,3
Sa, 18.05. 18:00 1012 - 0,8
Sa, 18.05. 17:00 1013 - 0,2
Sa, 18.05. 16:00 1013 - 0,8
Sa, 18.05. 15:00 1013 - 1,0
Sa, 18.05. 14:00 1013 + 1,0
Sa, 18.05. 13:00 1014 + 1,4
Ortszeit Schneehöhe (cm)
Sa, 18.05. 14:00 -
Sa, 18.05. 8:00 0
Sa, 18.05. 2:00 -
Fr, 17.05. 20:00 -
Fr, 17.05. 14:00 -
Fr, 17.05. 8:00 0
Fr, 17.05. 2:00 -
Do, 16.05. 20:00 -
Ortszeit Schneehöhe (cm)
Sa, 18.05. 19:00 -
Sa, 18.05. 18:00 -
Sa, 18.05. 17:00 -
Sa, 18.05. 16:00 -
Sa, 18.05. 15:00 -
Sa, 18.05. 14:00 -
Sa, 18.05. 13:00 -
Link zu dieser Seite / Seite empfehlen

Das Wetter in ...